星链-30969 (STARLINK-30969 )

导读

STARLINK-30969是美国SpaceX公司星链(Starlink)星座的卫星,属于v1.5版本,于2023年11月28日发射入轨。星链项目旨在构建全球低轨卫星互联网,该卫星运行在近地轨道,配备霍尔推进器与自主避撞系统,采用Ku/Ka频段提供通信服务,可为全球用户提供高速低时延的互联网接入,目前处于在轨工作状态,寿命末期将主动离轨坠入大气层销毁。

Basic Information
目录编号:
58438
目录名称:
STARLINK-30969
国际标识:
2023-183B
轨道中心:
EARTH
卫星名称:
星链-30969
卫星全名:
星链-30969 (STARLINK-30969 )
卫星状态:
在轨 (已飞行932 天)
发射日期:
2023-11-28 UTC
国别 :
美国 (US)
星等 :
--
Orbit Information
数据来源 国际轨道数据 AOE轨道数据
星历时间 2026-06-17T12:00:02+0800
11小时前
查看轨道信息
2026-06-17T04:00:00+0800
19小时前
查看轨道信息
半长轴 6861.267km 6861.018km
偏心率 0.0001554 0.0002261
轨道倾角 43.001° 43.002°
近地点辐角 273.787° 256.494°
升交点赤经 199.866° 201.744°
平近点角 230.414° 212.447°
近地点 482.063km 481.329km
远地点 484.197km 484.433km
周期 94.268分钟 94.263分钟
每日圈数 15.27553 15.276363
Detailed Information
固有亮度:
5
最大亮度:
0.3
卫星平台:
Starlink v2.0 mini
覆盖范围:
全球
运营商:
太空探索技术公司
运营商所在国:
美国
制造商(研发单位):
太空探索技术公司
制造商所在国:
美国
使用方式:
暂无
Satellite Introduction
星链(Starlink)计划是由太空探索技术公司(SpaceX)提出的一个巨型低轨卫星互联网星座项目,计划在2019年至2024年间在太空搭建由约1.2万颗卫星组成的“星链”网络,其中1584颗将部署在地球上空550千米处的近地轨道,并从2020年开始工作。该卫星仍在工作。
2D Orbit Map
3D Orbit Map
Orbit Altitude Analysis Chart
Orbit Inclination Analysis Chart
Orbit Comprehensive Analysis Chart
View Comprehensive Chart